Regional Weather Roundup
Issued by NWS

Home | Current Version | Previous Version | Graphics & Text | Print | Product List | Glossary On
Versions: 1 2 3 4 5 6 7 8 9 10 11 12 13 14 15 16 17 18 19 20 21 22 23 24 25 26 27 28 29 30 31 32 33 34 35 36 37 38 39 40 41 42 43 44 45 46 47 48 49 50
000
ASUS45 KCYS 291710
RWRWY

WYOMING REGIONAL WEATHER ROUNDUP
NATIONAL WEATHER SERVICE CHEYENNE WY
1100 AM MDT FRI AUG 29 2014

NOTE:  "FAIR" INDICATES FEW OR NO CLOUDS BELOW 12,000 FEET
WITH NO SIGNIFICANT WEATHER AND/OR OBSTRUCTIONS TO VISIBILITY.

WYZ001-291800-
YELLOWSTONE NATIONAL PARK

CITY           SKY/WX    TMP DP  RH WIND       PRES   REMARKS
LK YELLOWSTONE   N/A     55  47  74 VRB5      30.31S
W YELLOWSTONE  NOT AVBL

$$
WYZ002>013-054>058-071-098>099-291800-
NORTHERN WYOMING

CITY           SKY/WX    TMP DP  RH WIND       PRES   REMARKS
JACKSON        SUNNY     64  46  52 CALM      30.23F
CODY           SUNNY    N/A N/A N/A N5        30.12F
GREYBULL       SUNNY     67  54  63 VRB3      30.09F
WORLAND        SUNNY     71  49  45 E6        30.10F
SHERIDAN       CLOUDY    64  53  67 NW9       30.11S
BUFFALO        CLOUDY    64  54  69 N12       30.15R
GILLETTE       MOSUNNY   69  53  56 NW10      30.09S
HULETT         FAIR      66  52  59 MISG      30.09
NEWCASTLE      FAIR      70  46  43 N12G21    30.04

$$
WYZ014>020-022>026-101>103-291800-
CENTRAL WYOMING

CITY           SKY/WX    TMP DP  RH WIND       PRES   REMARKS
BIG PINEY      SUNNY     63  44  50 SE6       30.27S
PINEDALE       SUNNY     64  41  42 CALM      30.27F
DUBOIS         FAIR      64  37  36 SE6       30.25F
LANDER         SUNNY     70  44  39 SE3       30.16F
RIVERTON       SUNNY     68  46  45 VRB5      30.17F
CASPER         SUNNY     71  44  37 NW7       30.16S
DOUGLAS        SUNNY     71  49  45 NW12      30.13S

$$
WYZ021-027>030-104>119-291800-
SOUTHERN WYOMING

CITY           SKY/WX    TMP DP  RH WIND       PRES   REMARKS
EVANSTON       SUNNY     67  41  38 SW12      30.28S
KEMMERER       SUNNY     66  37  34 W8        30.29S
FORT BRIDGER   FAIR      72  40  31 W9G16     30.30S
ROCK SPRINGS   SUNNY     66  40  38 VRB3      30.26S
DIXON          FAIR      67  47  49 W7        30.28S
RAWLINS        SUNNY     66  43  43 SW6       30.26R
SARATOGA       FAIR      64  46  52 CALM      30.27S
LARAMIE        SUNNY     64  45  49 NW13      30.25F
CHEYENNE       MOSUNNY   68  45  43 NW16G24   30.18R
TORRINGTON     MOSUNNY   73  51  46 N12       30.04F
PINE BLUFFS    FAIR      72  46  40 N15G24    30.11R

$$



USA.gov is the U.S. government's official web portal to all federal, state and local government web resources and services.